Weather History for Miles City, MT

Change the Weather History Date:

Saturday, December 29, 2012

  Actual Average Record
Temperature  
Mean Temperature 16 °F 18 °F  
Max Temperature 26 °F 29 °F 60 °F (1956)
Min Temperature 6 °F 8 °F -28 °F (1990)
Degree Days  
Heating Degree Days 49 47  
Month to date heating degree days 1210 1291  
Since 1 July heating degree days 2811 3090  
Cooling Degree Days 0 0  
Month to date cooling degree days 0 0  
Year to date cooling degree days 1107 730  
Moisture  
Dew Point 10 °F    
Average Humidity 76    
Maximum Humidity 88    
Minimum Humidity 63    
Precipitation  
Precipitation 0.00 in 0.02 in 0.80 in (1938)
Month to date precipitation 0.19 0.27  
Year to date precipitation 6.15 12.42  
Sea Level Pressure  
Sea Level Pressure 30.12 in    
Wind  
Wind Speed 6 mph (South)    
Max Wind Speed 10 mph    
Max Gust Speed 12 mph    
Visibility 10 miles    
Events      
T = Trace of Precipitation, MM = Missing Value Source: NWS Daily Summary

Daily Weather History Graph

Daily Weather History Graph

Search for Another Location

Airport:

Trip Planner

Search our weather history database for the weather conditions in past years. The results will help you decide how hot, cold, wet, or windy it might be!

Date:

Astronomy

Dec. 29, 2012 Rise Set
Actual Time 7:46 AM MST 4:25 PM MST
Civil Twilight 7:12 AM MST 4:59 PM MST
Nautical Twilight 6:33 AM MST 5:38 PM MST
Astronomical Twilight 5:57 AM MST 6:14 PM MST
Moon 6:07 PM MST (12/29) 8:16 AM MST (12/29)
Length of Visible Light 9h 47m
Length of Day
8h 38m
Full, 98% of the Moon is Illuminated
Dec 29
Full
Jan 4
Last Quarter
Jan 11
New
Jan 18
First Quarter
Jan 26
Full

Hourly Weather History & Observations

Time (MST) Temp. Windchill Dew Point Humidity Pressure Visibility Wind Dir Wind Speed Gust Speed Precip Events Conditions
12:53 AM 12.9 °F 6.9 °F 8.1 °F 81% 30.14 in 10.0 mi SW 3.5 mph - N/A   Clear
1:53 AM 10.0 °F -1.9 °F 6.1 °F 84% 30.14 in 10.0 mi WSW 8.1 mph - N/A   Clear
2:53 AM 12.9 °F 0.7 °F 9.0 °F 84% 30.15 in 10.0 mi WSW 9.2 mph - N/A   Clear
3:53 AM 10.0 °F 0.4 °F 6.1 °F 84% 30.17 in 10.0 mi South 5.8 mph - N/A   Clear
4:53 AM 10.0 °F -1.9 °F 5.0 °F 80% 30.16 in 10.0 mi SW 8.1 mph - N/A   Clear
5:53 AM 10.9 °F 0.2 °F 7.0 °F 84% 30.17 in 10.0 mi SW 6.9 mph - N/A   Clear
6:53 AM 10.0 °F -0.9 °F 5.0 °F 80% 30.17 in 10.0 mi SW 6.9 mph - N/A   Clear
7:53 AM 10.9 °F 1.4 °F 7.0 °F 84% 30.17 in 10.0 mi SSW 5.8 mph - N/A   Clear
8:53 AM 9.0 °F -2.2 °F 5.0 °F 84% 30.19 in 10.0 mi South 6.9 mph - N/A   Clear
9:53 AM 14.0 °F 8.2 °F 10.0 °F 84% 30.19 in 10.0 mi SSE 3.5 mph - N/A   Clear
10:53 AM 18.0 °F 11.1 °F 12.9 °F 81% 30.18 in 10.0 mi SSE 4.6 mph - N/A   Clear
11:53 AM 19.9 °F 14.9 °F 14.0 °F 78% 30.14 in 10.0 mi South 3.5 mph - N/A   Clear
12:53 PM 21.9 °F 17.2 °F 12.9 °F 68% 30.10 in 10.0 mi SE 3.5 mph - N/A   Clear
1:53 PM 26.1 °F 21.9 °F 15.1 °F 63% 30.09 in 10.0 mi South 3.5 mph - N/A   Clear
2:53 PM 25.0 °F 18.1 °F 16.0 °F 69% 30.09 in 10.0 mi SSE 5.8 mph - N/A   Clear
3:53 PM 23.0 °F 15.8 °F 15.1 °F 72% 30.09 in 10.0 mi SSE 5.8 mph - N/A   Clear
4:53 PM 23.0 °F 13.9 °F 14.0 °F 68% 30.08 in 10.0 mi SE 8.1 mph - N/A   Clear
5:53 PM 21.9 °F 13.4 °F 14.0 °F 72% 30.07 in 10.0 mi SSE 6.9 mph - N/A   Clear
6:53 PM 21.0 °F 12.4 °F 14.0 °F 74% 30.07 in 10.0 mi SSE 6.9 mph - N/A   Clear
7:53 PM 19.9 °F 13.4 °F 12.9 °F 74% 30.06 in 10.0 mi SSE 4.6 mph - N/A   Clear
8:53 PM 19.9 °F 13.4 °F 12.9 °F 74% 30.06 in 10.0 mi SSE 4.6 mph - N/A   Clear
9:53 PM 16.0 °F 8.8 °F 10.9 °F 81% 30.07 in 10.0 mi South 4.6 mph - N/A   Clear
10:53 PM 12.9 °F 3.8 °F 9.0 °F 84% 30.07 in 10.0 mi SSE 5.8 mph - N/A   Clear
11:53 PM 8.1 °F - 6.1 °F 92% 30.07 in 10.0 mi Calm Calm - N/A   Clear